NASA419 KTTS-KTTS

Flight info

Callsign NASA419
Flight time 0h 7m
Altitude 1000
Route VFR
Aircraft UH1/L-SBGRY/C

Departure

Time 2026-05-05 21:13
Airport Space Florida Launch and Landing Facility (KTTS)

Arrival

Time 2026-05-05 21:20
Airport Space Florida Launch and Landing Facility (KTTS)
Time Latitude Longitude Altitude Speed Heading
2026-05-05 20:49 28.59972 -80.68008 17 ft 0 kts 163°
2026-05-05 20:50 28.59969 -80.68009 17 ft 1 kts 164°
2026-05-05 20:51 28.59963 -80.68012 19 ft 1 kts 162°
2026-05-05 20:51 28.59958 -80.68012 17 ft 0 kts 163°
2026-05-05 20:51 28.59958 -80.68011 17 ft 0 kts 166°
2026-05-05 20:52 28.59951 -80.68013 20 ft 1 kts 160°
2026-05-05 20:52 28.59944 -80.68011 25 ft 1 kts 164°
2026-05-05 20:52 28.59936 -80.68009 35 ft 1 kts 171°
2026-05-05 20:53 28.59923 -80.68009 43 ft 4 kts 174°
2026-05-05 20:53 28.59889 -80.68036 51 ft 6 kts 203°
2026-05-05 20:53 28.59845 -80.68061 89 ft 8 kts 208°
2026-05-05 20:53 28.59791 -80.68093 54 ft 10 kts 192°
2026-05-05 20:54 28.59748 -80.68151 41 ft 12 kts 275°
2026-05-05 20:54 28.59759 -80.68227 45 ft 11 kts 278°
2026-05-05 20:54 28.59764 -80.68292 51 ft 6 kts 289°
2026-05-05 20:54 28.59807 -80.68360 68 ft 19 kts 343°
2026-05-05 20:55 28.59827 -80.68481 40 ft 2 kts 342°
2026-05-05 20:55 28.59837 -80.68483 27 ft 1 kts 342°
2026-05-05 20:55 28.59841 -80.68484 20 ft 0 kts 339°
2026-05-05 20:55 28.59841 -80.68483 20 ft 0 kts 339°
2026-05-05 20:56 28.59841 -80.68482 20 ft 0 kts 339°
2026-05-05 20:56 28.59842 -80.68482 20 ft 0 kts 339°
2026-05-05 20:57 28.59842 -80.68481 20 ft 0 kts 339°
2026-05-05 20:58 28.59842 -80.68480 20 ft 0 kts 339°
2026-05-05 21:00 28.59849 -80.68483 32 ft 2 kts 342°
2026-05-05 21:00 28.59862 -80.68485 35 ft 2 kts 346°
2026-05-05 21:00 28.59873 -80.68489 39 ft 2 kts 351°
2026-05-05 21:00 28.59895 -80.68488 47 ft 10 kts 348°
2026-05-05 21:01 28.60171 -80.68563 113 ft 74 kts 323°
2026-05-05 21:01 28.60697 -80.68919 152 ft 98 kts 327°
2026-05-05 21:01 28.61339 -80.69323 135 ft 112 kts 331°
2026-05-05 21:01 28.62005 -80.69764 213 ft 109 kts 328°
2026-05-05 21:02 28.62695 -80.70219 221 ft 120 kts 327°
2026-05-05 21:02 28.63411 -80.70689 312 ft 117 kts 340°
2026-05-05 21:02 28.64141 -80.70545 325 ft 107 kts 34°
2026-05-05 21:02 28.64471 -80.69877 465 ft 96 kts 81°
2026-05-05 21:03 28.64464 -80.69091 377 ft 106 kts 83°
2026-05-05 21:03 28.64487 -80.68258 360 ft 104 kts 77°
2026-05-05 21:03 28.64635 -80.67449 332 ft 106 kts 56°
2026-05-05 21:03 28.64993 -80.66707 347 ft 108 kts 56°
2026-05-05 21:04 28.65412 -80.66009 300 ft 109 kts 49°
2026-05-05 21:04 28.65872 -80.65392 345 ft 102 kts 37°
2026-05-05 21:04 28.66496 -80.64979 311 ft 106 kts 22°
2026-05-05 21:04 28.67154 -80.64639 360 ft 105 kts 29°
2026-05-05 21:05 28.67853 -80.64338 431 ft 98 kts 17°
2026-05-05 21:05 28.68367 -80.64116 529 ft 75 kts 35°
2026-05-05 21:05 28.68591 -80.63707 537 ft 65 kts 102°
2026-05-05 21:05 28.68182 -80.63564 529 ft 78 kts 209°
2026-05-05 21:06 28.68268 -80.64117 554 ft 74 kts 339°
2026-05-05 21:06 28.68636 -80.63900 414 ft 69 kts 47°
2026-05-05 21:06 28.68968 -80.63469 378 ft 75 kts 52°
2026-05-05 21:06 28.69383 -80.63102 497 ft 70 kts 48°
2026-05-05 21:07 28.69416 -80.62622 566 ft 71 kts 120°
2026-05-05 21:07 28.68979 -80.62472 708 ft 35 kts 160°
2026-05-05 21:07 28.68891 -80.62462 631 ft 5 kts 159°
2026-05-05 21:07 28.68867 -80.62453 478 ft 7 kts 165°
2026-05-05 21:08 28.68817 -80.62502 344 ft 12 kts 165°
2026-05-05 21:08 28.68762 -80.62571 320 ft 12 kts 163°
2026-05-05 21:08 28.68743 -80.62569 320 ft 16 kts 160°
2026-05-05 21:08 28.68698 -80.62561 351 ft 16 kts 155°
2026-05-05 21:09 28.68512 -80.62516 289 ft 40 kts 149°
2026-05-05 21:09 28.68271 -80.62471 152 ft 26 kts 174°
2026-05-05 21:09 28.68075 -80.62480 80 ft 42 kts 168°
2026-05-05 21:09 28.67917 -80.62840 183 ft 80 kts 303°
2026-05-05 21:10 28.68266 -80.63398 238 ft 92 kts 302°
2026-05-05 21:10 28.68536 -80.63993 214 ft 75 kts 313°
2026-05-05 21:10 28.68760 -80.63970 169 ft 46 kts 116°
2026-05-05 21:10 28.68391 -80.64055 157 ft 82 kts 214°
2026-05-05 21:11 28.67952 -80.64562 315 ft 91 kts 183°
2026-05-05 21:11 28.67371 -80.64414 274 ft 90 kts 138°
2026-05-05 21:11 28.66833 -80.64024 248 ft 94 kts 132°
2026-05-05 21:11 28.66289 -80.63615 256 ft 96 kts 134°
2026-05-05 21:12 28.65699 -80.63215 272 ft 103 kts 134°
2026-05-05 21:12 28.65106 -80.62800 279 ft 101 kts 133°
2026-05-05 21:12 28.64493 -80.62402 264 ft 102 kts 135°
2026-05-05 21:12 28.63884 -80.61952 296 ft 109 kts 135°
2026-05-05 21:13 28.63254 -80.61435 322 ft 110 kts 136°
2026-05-05 21:13 28.62539 -80.61324 578 ft 105 kts 194°
2026-05-05 21:13 28.62022 -80.61959 639 ft 113 kts 258°
2026-05-05 21:13 28.62220 -80.62795 826 ft 112 kts 315°
2026-05-05 21:14 28.62941 -80.63011 749 ft 116 kts 21°
2026-05-05 21:14 28.63392 -80.62371 735 ft 104 kts 79°
2026-05-05 21:14 28.63219 -80.61567 704 ft 106 kts 122°
2026-05-05 21:14 28.62532 -80.61447 811 ft 113 kts 191°
2026-05-05 21:15 28.61831 -80.61923 659 ft 118 kts 178°
2026-05-05 21:15 28.61102 -80.61722 683 ft 106 kts 133°
2026-05-05 21:15 28.60491 -80.61227 603 ft 109 kts 136°
2026-05-05 21:15 28.60035 -80.60587 560 ft 106 kts 89°
2026-05-05 21:16 28.60362 -80.59860 557 ft 110 kts 35°
2026-05-05 21:16 28.61111 -80.59701 598 ft 120 kts 333°
2026-05-05 21:16 28.61468 -80.60500 624 ft 123 kts 254°
2026-05-05 21:16 28.60975 -80.61222 661 ft 120 kts 172°
2026-05-05 21:17 28.60347 -80.60776 661 ft 112 kts 100°
2026-05-05 21:17 28.60481 -80.59934 677 ft 115 kts 49°
2026-05-05 21:17 28.60771 -80.59150 717 ft 112 kts 104°
2026-05-05 21:17 28.60185 -80.58552 703 ft 119 kts 136°
2026-05-05 21:18 28.59451 -80.58063 664 ft 123 kts 138°
2026-05-05 21:18 28.58690 -80.57641 622 ft 122 kts 167°
2026-05-05 21:18 28.57986 -80.58019 661 ft 122 kts 237°
2026-05-05 21:18 28.58185 -80.58779 621 ft 111 kts 351°
2026-05-05 21:19 28.58771 -80.58445 564 ft 98 kts 74°
2026-05-05 21:19 28.58495 -80.57867 648 ft 99 kts 164°
2026-05-05 21:19 28.58002 -80.58347 707 ft 111 kts 283°
2026-05-05 21:19 28.58590 -80.58545 625 ft 100 kts 50°
2026-05-05 21:20 28.58479 -80.57948 635 ft 100 kts 153°
2026-05-05 21:20 28.57952 -80.58368 683 ft 105 kts 271°
2026-05-05 21:20 28.58235 -80.58896 489 ft 67 kts 13°
2026-05-05 21:20 28.58307 -80.58801 447 ft 36 kts 163°
2026-05-05 21:21 28.58069 -80.58827 439 ft 34 kts 149°
2026-05-05 21:21 28.58056 -80.58633 300 ft 40 kts 10°
2026-05-05 21:21 28.58266 -80.58778 175 ft 24 kts 212°
2026-05-05 21:21 28.58191 -80.58836 56 ft 13 kts 188°
2026-05-05 21:22 28.58138 -80.58862 25 ft 4 kts 198°
2026-05-05 21:22 28.58127 -80.58867 17 ft 0 kts 204°
2026-05-05 21:22 28.58126 -80.58867 12 ft 0 kts 205°
2026-05-05 21:23 28.58118 -80.58872 16 ft 1 kts 203°
2026-05-05 21:23 28.58114 -80.58873 17 ft 1 kts 204°
2026-05-05 21:23 28.58110 -80.58876 25 ft 1 kts 201°
2026-05-05 21:23 28.58106 -80.58868 34 ft 2 kts 198°
2026-05-05 21:24 28.58100 -80.58872 28 ft 2 kts 185°
2026-05-05 21:24 28.58070 -80.58870 44 ft 8 kts 142°
2026-05-05 21:24 28.58018 -80.58800 50 ft 11 kts 121°
2026-05-05 21:24 28.57967 -80.58714 68 ft 8 kts 124°
2026-05-05 21:25 28.57951 -80.58698 72 ft 1 kts 129°
2026-05-05 21:25 28.57943 -80.58695 66 ft 1 kts 133°
2026-05-05 21:25 28.57937 -80.58695 127 ft 1 kts 133°
2026-05-05 21:25 28.57928 -80.58689 71 ft 1 kts 130°
2026-05-05 21:26 28.57907 -80.58674 93 ft 14 kts 125°
2026-05-05 21:26 28.57700 -80.58449 246 ft 65 kts 130°
2026-05-05 21:26 28.57174 -80.58420 422 ft 87 kts 180°
2026-05-05 21:26 28.56693 -80.58299 523 ft 61 kts 96°
2026-05-05 21:27 28.56668 -80.58128 709 ft 1 kts 100°
2026-05-05 21:27 28.56667 -80.58121 717 ft 1 kts 95°
2026-05-05 21:27 28.56659 -80.58073 716 ft 31 kts 94°
2026-05-05 21:27 28.56604 -80.57598 632 ft 77 kts 104°
2026-05-05 21:28 28.56095 -80.57436 768 ft 97 kts 192°
2026-05-05 21:28 28.55979 -80.58080 836 ft 84 kts 340°
2026-05-05 21:28 28.56491 -80.57904 624 ft 89 kts 52°
2026-05-05 21:28 28.56310 -80.57427 614 ft 87 kts 155°
2026-05-05 21:29 28.55908 -80.57868 696 ft 104 kts 282°
2026-05-05 21:29 28.56447 -80.58319 649 ft 108 kts 343°
2026-05-05 21:29 28.57243 -80.58680 557 ft 135 kts 334°
2026-05-05 21:29 28.58106 -80.59203 522 ft 144 kts 324°
2026-05-05 21:30 28.58930 -80.59842 498 ft 142 kts 323°
2026-05-05 21:30 28.59734 -80.60485 494 ft 140 kts 320°
2026-05-05 21:30 28.60055 -80.61373 503 ft 134 kts 235°
2026-05-05 21:30 28.59515 -80.62223 488 ft 135 kts 223°
2026-05-05 21:31 28.59129 -80.63190 513 ft 131 kts 244°
2026-05-05 21:31 28.58768 -80.64129 504 ft 125 kts 227°
2026-05-05 21:31 28.58225 -80.64881 575 ft 123 kts 210°
2026-05-05 21:31 28.57948 -80.65752 616 ft 127 kts 269°
2026-05-05 21:32 28.58021 -80.66798 517 ft 134 kts 271°
2026-05-05 21:32 28.58552 -80.67542 428 ft 124 kts 328°
2026-05-05 21:32 28.59216 -80.67975 315 ft 93 kts 329°
2026-05-05 21:32 28.59653 -80.68245 167 ft 47 kts 332°
2026-05-05 21:33 28.59752 -80.68286 133 ft 10 kts 64°
2026-05-05 21:33 28.59739 -80.68158 59 ft 22 kts 83°
2026-05-05 21:33 28.59850 -80.68058 43 ft 24 kts 22°
2026-05-05 21:33 28.60015 -80.68023 60 ft 16 kts 247°
2026-05-05 21:34 28.59998 -80.68062 47 ft 6 kts 155°
2026-05-05 21:34 28.59985 -80.68081 34 ft 1 kts 150°
2026-05-05 21:34 28.59992 -80.68087 28 ft 1 kts 152°
2026-05-05 21:34 28.59989 -80.68089 26 ft 0 kts 148°
2026-05-05 21:35 28.59986 -80.68087 20 ft 0 kts 149°